Location: Chodzież
(52.9983°N, 16.9198°E)
Time: 04:49:12
(UTC+01:00)

ISS - Visible Passes

Search period start: 24 November 2017 00:00
Search period end: 04 December 2017 00:00
Orbit: 402 x 407 km, 51.6° (Epoch: 24 November)

Date Brightness Start Highest point End Pass type
(mag) Time Alt. Az. Time Alt. Az. Time Alt. Az.
28 Nov -1.1 18:17:27 10° S 18:17:50 12° S 18:17:50 12° S visible
29 Nov -1.4 17:26:19 10° SSE 17:27:39 12° SE 17:27:45 12° SE visible
29 Nov -0.5 19:00:23 10° SW 19:00:25 10° SW 19:00:25 10° SW visible
30 Nov -2.0 18:08:20 10° SW 18:10:15 24° S 18:10:15 24° S visible
01 Dec -2.0 17:16:30 10° SSW 17:19:00 20° SSE 17:20:01 18° ESE visible
01 Dec -0.9 18:51:50 10° WSW 18:52:40 16° WSW 18:52:40 16° WSW visible
02 Dec -1.4 16:25:03 10° S 16:26:50 14° SE 16:28:37 10° ESE visible
02 Dec -3.0 17:59:35 10° SW 18:02:23 42° S 18:02:23 42° S visible
03 Dec -2.7 17:07:26 10° SW 17:10:25 32° SSE 17:12:04 20° ESE visible
03 Dec -1.3 18:43:21 10° WSW 18:44:42 22° WSW 18:44:42 22° WSW visible
